Retour au catalogue

STARLINK-30496

ActifCommunicationsVLEO
NORAD 57919·PAYLOAD·🇺🇸 United States

Lancé Sep 24, 2023 depuis Cape Canaveral Space Force Station

Loading…

Prochains Passages (prochaines 24 heures)

TLE

FraisSource: CelesTrak SupGP

Époque: Sep 15, 2026, 01:51 UTC

1 57919C 23147G   26258.07756944  .00037775  00000+0  13680-2 0  2589
2 57919  43.0027 335.6509 0001667 264.3884  49.9945 15.27563924    10

Suivez STARLINK-30496 en temps réel avec AllMySat

Download on the App Store